Location: Sungai Anya
(2.6167°N, 114.0500°E)
Time: 18:34:26
(UTC+00:00)

Cosmos 2322 Rocket - Pass Details

Date: 19 October 2021
Orbit: 832 x 852 km, 71.0° (Epoch: 08 December)

Event Time Altitude Azimuth Distance (km) Brightness Sun altitude
Rises 10:35:29 0° 194° (SSW) 3,381 5.7 -7.0°
Reaches altitude 10° 10:37:56 10° 193° (SSW) 2,443 4.9 -7.6°
Maximum altitude 10:43:32 84° 104° (ESE) 840 2.2 -9.0°
Drops below altitude 10° 10:49:07 10° 17° (NNE) 2,428 4.3 -10.4°
Sets 10:51:32 0° 17° (NNE) 3,360 5.1 -11.0°
